(185757) = 2004 RD182 = 1999 TK15

Discovered at Ondrejov on 1999-10-12 by P. Pravec and P. Kusnirak.

Orbit

Orbit type: Main Belt

Note: WebGL enabled browser required.

epoch2023-02-25.0
epoch JD2460000.5
perihelion date2020-01-10.98342
perihelion JD2458859.48342
argument of perihelion (°)134.75718
ascending node (°)194.73640
inclination (°)6.03221
eccentricity0.0742286
perihelion distance (AU)2.7881570
Tisserand w.r.t. Jupiter3.2
ΔV w.r.t. Earth (km/sec)10.6
semimajor axis (AU)3.0117123
mean anomaly (°)215.16695
mean daily motion (°/day)0.18857480
aphelion distance (AU)3.235
period (years)5.23
P-vector [x]0.86057214
P-vector [y]-0.49194026
P-vector [z]-0.13194834
Q-vector [x]0.50862660
Q-vector [y]0.81645039
Q-vector [z]0.27332718
absolute magnitude15.85
phase slope0.15
uncertainty0
referenceMPO 745323
observations used409
oppositions19
arc length (days)10447
first opposition used1994
last opposition used2023
residual rms (arc-secs)0.74
perturbers coarse indicatorM-v
perturbers precise indicator003Ek
first observation date used1994-10-31.0
last observation date used2023-06-08.0
computer nameMPCLINUX
JD of orbit computation2456966.721284
perihelion JD uncertainty (days)1.1468E-04
argument of perihelion uncertainty (°)3.9052E-05
ascending node uncertainty (°)3.1129E-05
inclination uncertainty (°)3.8820E-06
eccentricity uncertainty 4.3509E-08
perihelion distance uncertainty (AU)1.3929E-07
Minimum Orbit Intersection Distances (in AU)
for orbit epoch: 2460000.5, reference: E2023-MG0
Mercury2.38152
Venus2.06857
Earth1.78028
Mars1.42081
Jupiter2.03474
Saturn5.93763
Uranus15.2238
Neptune26.9261

Observations

413 total observations over interval: 1994 10 31.36806 – 2023 06 08.00910
These data are available for download (format description).

Date (UT) J2000 RA J2000 Dec Magn Location Ref
1994 10 31.36806 02 39 17.26 +11 29 02.2 19.6 V 691 – Steward Observatory, Kitt Peak-Spacewatch MPS 115552
1994 10 31.38992 02 39 16.19 +11 28 54.5   691 – Steward Observatory, Kitt Peak-Spacewatch MPS 115552
1994 10 31.41183 02 39 15.14 +11 28 46.9   691 – Steward Observatory, Kitt Peak-Spacewatch MPS 115552
1997 05 03.16509 12 31 40.55 -02 50 50.0 20.8 V 691 – Steward Observatory, Kitt Peak-Spacewatch MPS 115552
1997 05 03.18737 12 31 39.93 -02 50 44.3 21.0 V 691 – Steward Observatory, Kitt Peak-Spacewatch MPS 115552
1997 05 03.20905 12 31 39.36 -02 50 38.8 21.3 V 691 – Steward Observatory, Kitt Peak-Spacewatch MPS 115552
1999 10 12.92262 01 13 03.20 +06 59 50.0 19.4 V 557 – Ondrejov MPS 6925
1999 10 12.94955 01 13 01.99 +06 59 39.3   557 – Ondrejov MPS 6925
1999 10 13.03164 01 12 58.26 +06 59 06.0   557 – Ondrejov MPS 6925
1999 10 13.86904 01 12 21.34 +06 53 29.8   557 – Ondrejov MPS 6925
1999 10 13.88896 01 12 20.38 +06 53 22.2 19.4 V 557 – Ondrejov MPS 6925
1999 10 19.03747 01 08 34.70 +06 19 14.8 19.9 V 557 – Ondrejov MPS 6925
1999 10 19.04288 01 08 34.37 +06 19 12.6   557 – Ondrejov MPS 6925
2002 03 23.30482 11 40 23.90 -00 42 04.6 20.6 V 691 – Steward Observatory, Kitt Peak-Spacewatch MPS 115552
2002 03 23.32570 11 40 23.02 -00 41 56.7 20.6 V 691 – Steward Observatory, Kitt Peak-Spacewatch MPS 115552
2002 03 23.36809 11 40 21.14 -00 41 40.6 21.3 V 691 – Steward Observatory, Kitt Peak-Spacewatch MPS 115552
2002 04 04.20663 11 32 24.37 +00 30 36.3 21.0   644 – Palomar Mountain/NEAT MPS 115552
2002 04 04.22872 11 32 23.56 +00 30 43.7 20.9   644 – Palomar Mountain/NEAT MPS 115552
2002 04 04.24983 11 32 22.77 +00 30 51.8 20.8   644 – Palomar Mountain/NEAT MPS 115552
2002 04 06.07683 11 31 16.72 +00 41 26.3 19.6 R 807 – Cerro Tololo Observatory, La Serena MPS 115552
2002 04 06.16515 11 31 13.34 +00 41 56.4   807 – Cerro Tololo Observatory, La Serena MPS 115552
2004 09 10.23923 23 54 22.95 +02 49 13.2 19.4   704 – Lincoln Laboratory ETS, New Mexico MPS 113221
2004 09 10.25104 23 54 22.50 +02 49 09.8 20.3   704 – Lincoln Laboratory ETS, New Mexico MPS 113221
2004 09 10.26295 23 54 21.89 +02 49 05.1 20.3   704 – Lincoln Laboratory ETS, New Mexico MPS 113221
2004 09 10.28706 23 54 20.90 +02 48 55.5 19.9   704 – Lincoln Laboratory ETS, New Mexico MPS 113221
2004 09 13.24501 23 52 18.44 +02 29 46.3 19.7   704 – Lincoln Laboratory ETS, New Mexico MPS 113221
2004 09 13.25657 23 52 17.93 +02 29 41.5 19.7   704 – Lincoln Laboratory ETS, New Mexico MPS 113221
2004 09 13.26811 23 52 17.45 +02 29 36.6 20.0   704 – Lincoln Laboratory ETS, New Mexico MPS 113221
2004 09 13.27966 23 52 16.92 +02 29 32.5 19.6   704 – Lincoln Laboratory ETS, New Mexico MPS 113221
2004 09 16.27092 23 50 10.32 +02 09 29.2 20.7 R 683 – Goodricke-Pigott Observatory, Tucson MPS 114517
2004 09 16.28431 23 50 09.83 +02 09 25.3 21.3 R 683 – Goodricke-Pigott Observatory, Tucson MPS 114517
2004 09 16.29768 23 50 09.16 +02 09 20.9 20.6 R 683 – Goodricke-Pigott Observatory, Tucson MPS 114517
2004 09 16.33646 23 50 07.47 +02 09 04.2 19.5 V 691 – Steward Observatory, Kitt Peak-Spacewatch MPS 113221
2004 09 16.36689 23 50 06.12 +02 08 51.9 19.5 V 691 – Steward Observatory, Kitt Peak-Spacewatch MPS 113221
2004 09 16.40158 23 50 04.58 +02 08 37.9 19.5 V 691 – Steward Observatory, Kitt Peak-Spacewatch MPS 113221
2004 09 17.26770 23 49 27.79 +02 02 43.5 20.6 R 683 – Goodricke-Pigott Observatory, Tucson MPS 114517
2004 09 17.27000 23 49 27.66 +02 02 42.7 19.5   704 – Lincoln Laboratory ETS, New Mexico MPS 113221
2004 09 17.28109 23 49 27.24 +02 02 37.8 21.0 R 683 – Goodricke-Pigott Observatory, Tucson MPS 114517
2004 09 17.28168 23 49 27.19 +02 02 39.0 19.2   704 – Lincoln Laboratory ETS, New Mexico MPS 113221
2004 09 17.29335 23 49 26.62 +02 02 33.9 20.1   704 – Lincoln Laboratory ETS, New Mexico MPS 113221
2004 09 17.29445 23 49 26.66 +02 02 33.2 20.9 R 683 – Goodricke-Pigott Observatory, Tucson MPS 114517
2004 09 17.31672 23 49 25.67 +02 02 23.7 19.5   704 – Lincoln Laboratory ETS, New Mexico MPS 113221
2004 09 20.25802 23 47 19.94 +01 42 12.9 20.3 R 683 – Goodricke-Pigott Observatory, Tucson MPS 114517
2004 09 20.27138 23 47 19.32 +01 42 05.8 21.5 R 683 – Goodricke-Pigott Observatory, Tucson MPS 114517
2004 09 20.28479 23 47 18.58 +01 42 01.0 20.9 R 683 – Goodricke-Pigott Observatory, Tucson MPS 114517
2004 09 24.311047 23 44 27.642 +01 14 04.38 19.61 V 645 – Apache Point-Sloan Digital Sky Survey MPS 390186
2004 09 24.314519 23 44 27.489 +01 14 02.93 20.42   645 – Apache Point-Sloan Digital Sky Survey MPS 390186
2004 10 06.19308 23 36 42.46 -00 05 59.2 19.2 R 699 – Lowell Observatory-LONEOS MPS 115817
2004 10 06.20929 23 36 41.97 -00 06 05.9   699 – Lowell Observatory-LONEOS MPS 115817
2004 10 06.22549 23 36 41.29 -00 06 12.3   699 – Lowell Observatory-LONEOS MPS 115817
2004 10 06.24171 23 36 40.70 -00 06 18.2   699 – Lowell Observatory-LONEOS MPS 115817
2004 10 10.231327 23 34 27.252 -00 31 05.07 20.06 V 645 – Apache Point-Sloan Digital Sky Survey MPS 390186
2004 10 10.234799 23 34 27.134 -00 31 06.32 20.80   645 – Apache Point-Sloan Digital Sky Survey MPS 390186
2005 12 05.32531 06 06 19.99 +15 12 47.7 20.5 V 691 – Steward Observatory, Kitt Peak-Spacewatch MPS 153355
2005 12 05.34386 06 06 19.06 +15 12 46.3 20.5 V 691 – Steward Observatory, Kitt Peak-Spacewatch MPS 153355
2005 12 05.39955 06 06 16.38 +15 12 41.9 20.2 V 691 – Steward Observatory, Kitt Peak-Spacewatch MPS 153355
2005 12 08.31490 06 03 55.31 +15 08 57.1 20.3 V 691 – Steward Observatory, Kitt Peak-Spacewatch MPS 153355
2005 12 08.34020 06 03 54.01 +15 08 55.3 20.3 V 691 – Steward Observatory, Kitt Peak-Spacewatch MPS 153355
2005 12 08.36540 06 03 52.75 +15 08 53.4 20.2 V 691 – Steward Observatory, Kitt Peak-Spacewatch MPS 153355
2007 02 22.22480 10 49 44.14 +02 04 56.2   691 – Steward Observatory, Kitt Peak-Spacewatch MPS 200242
2007 02 22.24247 10 49 43.37 +02 05 01.6   691 – Steward Observatory, Kitt Peak-Spacewatch MPS 200242
2007 02 22.26016 10 49 42.56 +02 05 08.0   691 – Steward Observatory, Kitt Peak-Spacewatch MPS 200242
2007 03 12.87256 10 36 04.58 +03 52 44.5 20.6 V A13 – Observatoire Naef, Ependes MPS 202846
2007 03 12.89116 10 36 03.80 +03 52 50.4 20.2 V A13 – Observatoire Naef, Ependes MPS 202846
2007 03 12.90991 10 36 02.99 +03 52 57.3 19.8 V A13 – Observatoire Naef, Ependes MPS 202846
2008 04 13.42184 16 05 23.67 -15 52 39.9 19.9 V G96 – Mt. Lemmon Survey MPS 246666
2008 04 13.42844 16 05 23.60 -15 52 39.0 20.6 V G96 – Mt. Lemmon Survey MPS 246666
2008 04 13.43505 16 05 23.46 -15 52 37.9 20.1 V G96 – Mt. Lemmon Survey MPS 246666
2008 04 13.44161 16 05 23.28 -15 52 36.1 20.2 V G96 – Mt. Lemmon Survey MPS 246666
2008 05 11.32534 15 48 47.70 -13 59 06.8   691 – Steward Observatory, Kitt Peak-Spacewatch MPS 249769
2008 05 11.34303 15 48 46.84 -13 59 02.1   691 – Steward Observatory, Kitt Peak-Spacewatch MPS 249769
2008 05 11.36072 15 48 45.99 -13 58 57.5   691 – Steward Observatory, Kitt Peak-Spacewatch MPS 249769
2008 05 14.32653 15 46 26.40 -13 46 21.2 20.0 V 691 – Steward Observatory, Kitt Peak-Spacewatch MPS 249769
2008 05 14.34424 15 46 25.54 -13 46 17.1 19.7 V 691 – Steward Observatory, Kitt Peak-Spacewatch MPS 249769
2008 05 14.36195 15 46 24.68 -13 46 12.2 20.1 V 691 – Steward Observatory, Kitt Peak-Spacewatch MPS 249769
2008 05 28.26274 15 35 25.92 -12 51 29.7   291 – LPL/Spacewatch II MPS 250895
2008 05 28.26990 15 35 25.59 -12 51 28.1   291 – LPL/Spacewatch II MPS 250895
2008 05 28.27701 15 35 25.26 -12 51 26.6   291 – LPL/Spacewatch II MPS 250895
2008 05 28.27759 15 35 25.26 -12 51 27.1 19.7 V G96 – Mt. Lemmon Survey MPS 250895
2008 05 28.28343 15 35 24.97 -12 51 25.7 19.8 V G96 – Mt. Lemmon Survey MPS 250895
2008 05 28.28925 15 35 24.68 -12 51 24.5 19.6 V G96 – Mt. Lemmon Survey MPS 250895
2008 05 28.29509 15 35 24.50 -12 51 23.7 19.5 V G96 – Mt. Lemmon Survey MPS 250895
2008 05 28.31583 15 35 23.45 -12 51 18.7   291 – LPL/Spacewatch II MPS 250895
2008 05 28.32466 15 35 23.03 -12 51 16.8   291 – LPL/Spacewatch II MPS 250895
2008 05 28.33340 15 35 22.61 -12 51 15.2   291 – LPL/Spacewatch II MPS 250895
2009 08 15.32223 22 28 29.31 -02 43 20.2 19.4 V 703 – Catalina Sky Survey MPS 292517
